DAL495 MMUN-KDEN

Flight info

Callsign DAL495
Flight time 3h 58m
Altitude 38000
Route NOSUG2A NOSUG UT27 OMVIP UT45 ALKIM DCT KEHLI A766 SBI DCT KF09E DCT FUZ DCT KK36A DCT TOTOE DCT HALEN NIIXX4
Aircraft A339/H-SADE1E2E3GHIJ3J5M1P2RWXY/LB2D1

Departure

Time 2026-05-04 17:24
Airport Cancún International Airport (MMUN)

Arrival

Time 2026-05-04 21:22
Airport Denver International Airport (KDEN)
Time Latitude Longitude Altitude Speed Heading
2026-05-04 16:55 21.03553 -86.86808 45 ft 0 kts 338°
2026-05-04 17:10 21.03543 -86.86803 46 ft 0 kts 338°
2026-05-04 17:11 21.03530 -86.86797 46 ft 2 kts 322°
2026-05-04 17:11 21.03520 -86.86786 46 ft 2 kts 303°
2026-05-04 17:11 21.03511 -86.86757 46 ft 2 kts 268°
2026-05-04 17:12 21.03513 -86.86741 47 ft 2 kts 250°
2026-05-04 17:12 21.03529 -86.86716 47 ft 1 kts 215°
2026-05-04 17:13 21.03470 -86.86759 46 ft 1 kts 213°
2026-05-04 17:14 21.03468 -86.86760 46 ft 0 kts 214°
2026-05-04 17:15 21.03468 -86.86761 46 ft 0 kts 214°
2026-05-04 17:16 21.03409 -86.86802 44 ft 9 kts 213°
2026-05-04 17:16 21.03397 -86.86974 40 ft 11 kts 304°
2026-05-04 17:17 21.03445 -86.87050 40 ft 13 kts 303°
2026-05-04 17:17 21.03623 -86.87335 35 ft 17 kts 303°
2026-05-04 17:18 21.03695 -86.87450 33 ft 19 kts 303°
2026-05-04 17:18 21.03847 -86.87691 33 ft 19 kts 303°
2026-05-04 17:19 21.03997 -86.87932 32 ft 19 kts 303°
2026-05-04 17:19 21.04139 -86.88158 35 ft 17 kts 303°
2026-05-04 17:20 21.04265 -86.88361 39 ft 15 kts 303°
2026-05-04 17:20 21.04377 -86.88541 43 ft 13 kts 304°
2026-05-04 17:20 21.04431 -86.88626 44 ft 13 kts 304°
2026-05-04 17:21 21.04543 -86.88805 43 ft 15 kts 304°
2026-05-04 17:21 21.04636 -86.88986 44 ft 9 kts 256°
2026-05-04 17:22 21.04585 -86.89046 43 ft 12 kts 214°
2026-05-04 17:22 21.04536 -86.89078 43 ft 5 kts 197°
2026-05-04 17:23 21.04403 -86.88897 42 ft 57 kts 122°
2026-05-04 17:23 21.04072 -86.88361 37 ft 115 kts 123°
2026-05-04 17:23 21.02849 -86.86414 289 ft 180 kts 124°
2026-05-04 17:24 21.02148 -86.85300 860 ft 178 kts 122°
2026-05-04 17:24 21.03064 -86.82149 2350 ft 184 kts 37°
2026-05-04 17:25 21.04190 -86.81351 2655 ft 200 kts 32°
2026-05-04 17:25 21.06798 -86.79701 3276 ft 235 kts 31°
2026-05-04 17:26 21.09989 -86.78185 4022 ft 268 kts
2026-05-04 17:26 21.15668 -86.79192 5862 ft 280 kts 348°
2026-05-04 17:27 21.19551 -86.80015 6987 ft 286 kts 349°
2026-05-04 17:27 21.23496 -86.80782 8155 ft 291 kts 349°
2026-05-04 17:28 21.27531 -86.81561 9278 ft 296 kts 349°
2026-05-04 17:29 21.33752 -86.82766 10554 ft 316 kts 348°
2026-05-04 17:29 21.40676 -86.84113 11269 ft 356 kts 348°
2026-05-04 17:30 21.48415 -86.85620 12221 ft 389 kts 348°
2026-05-04 17:31 21.53757 -86.86660 13306 ft 394 kts 348°
2026-05-04 17:31 21.61968 -86.88261 14812 ft 402 kts 348°
2026-05-04 17:32 21.67523 -86.89344 15799 ft 407 kts 347°
2026-05-04 17:33 21.75967 -86.90998 17205 ft 415 kts 347°
2026-05-04 17:33 21.78835 -86.91560 17669 ft 417 kts 347°
2026-05-04 17:34 21.87525 -86.93069 18995 ft 426 kts 352°
2026-05-04 17:34 21.90500 -86.93344 19426 ft 429 kts 353°
2026-05-04 17:35 21.99498 -86.94100 20691 ft 435 kts 353°
2026-05-04 17:35 22.05583 -86.94614 21518 ft 438 kts 352°
2026-05-04 17:35 22.08607 -86.94871 21911 ft 440 kts 352°
2026-05-04 17:36 22.11719 -86.95136 22306 ft 442 kts 352°
2026-05-04 17:36 22.14832 -86.95401 22694 ft 444 kts 352°
2026-05-04 17:36 22.17900 -86.95664 23059 ft 446 kts 352°
2026-05-04 17:36 22.20993 -86.95930 23419 ft 447 kts 352°
2026-05-04 17:37 22.24167 -86.96203 23790 ft 449 kts 352°
2026-05-04 17:37 22.27283 -86.96471 24144 ft 451 kts 352°
2026-05-04 17:37 22.30407 -86.96740 24518 ft 453 kts 352°
2026-05-04 17:37 22.33579 -86.97012 24890 ft 455 kts 352°
2026-05-04 17:38 22.36721 -86.97282 25249 ft 456 kts 352°
2026-05-04 17:38 22.39926 -86.97557 25603 ft 459 kts 351°
2026-05-04 17:38 22.43131 -86.97833 25951 ft 461 kts 351°
2026-05-04 17:38 22.46351 -86.98110 26300 ft 463 kts 351°
2026-05-04 17:39 22.52794 -86.98666 26985 ft 466 kts 351°
2026-05-04 17:39 22.54964 -86.98852 27204 ft 468 kts 351°
2026-05-04 17:39 22.59290 -86.99224 27642 ft 471 kts 351°
2026-05-04 17:40 22.62580 -86.99507 27974 ft 473 kts 351°
2026-05-04 17:40 22.65877 -86.99791 28312 ft 475 kts 351°
2026-05-04 17:40 22.69183 -87.00076 28664 ft 476 kts 351°
2026-05-04 17:40 22.72456 -87.00359 29093 ft 475 kts 351°
2026-05-04 17:41 22.75757 -87.00643 29568 ft 473 kts 351°
2026-05-04 17:41 22.79040 -87.00926 30032 ft 472 kts 351°
2026-05-04 17:41 22.82312 -87.01210 30492 ft 471 kts 351°
2026-05-04 17:41 22.85613 -87.01496 30951 ft 470 kts 350°
2026-05-04 17:42 22.88859 -87.01778 31409 ft 469 kts 350°
2026-05-04 17:42 22.92100 -87.02058 31867 ft 468 kts 350°
2026-05-04 17:42 22.95347 -87.02344 32324 ft 466 kts 349°
2026-05-04 17:42 22.98550 -87.02813 32775 ft 461 kts 344°
2026-05-04 17:43 23.01699 -87.03560 33227 ft 456 kts 340°
2026-05-04 17:43 23.04704 -87.04552 33663 ft 452 kts 335°
2026-05-04 17:43 23.07633 -87.05805 34089 ft 447 kts 331°
2026-05-04 17:43 23.10403 -87.07274 34506 ft 443 kts 326°
2026-05-04 17:44 23.13032 -87.08953 34918 ft 439 kts 322°
2026-05-04 17:44 23.15536 -87.10837 35330 ft 435 kts 319°
2026-05-04 17:44 23.17985 -87.12793 35714 ft 433 kts 318°
2026-05-04 17:44 23.20387 -87.14729 36073 ft 432 kts 318°
2026-05-04 17:45 23.22779 -87.16663 36407 ft 432 kts 318°
2026-05-04 17:45 23.25193 -87.18614 36703 ft 432 kts 317°
2026-05-04 17:45 23.27631 -87.20585 36961 ft 433 kts 317°
2026-05-04 17:45 23.30040 -87.22533 37212 ft 434 kts 317°
2026-05-04 17:46 23.32470 -87.24496 37463 ft 434 kts 317°
2026-05-04 17:46 23.34894 -87.26457 37712 ft 435 kts 317°
2026-05-04 17:46 23.37293 -87.28397 37923 ft 435 kts 317°
2026-05-04 17:46 23.39740 -87.30379 38049 ft 436 kts 317°
2026-05-04 17:47 23.44601 -87.34312 38104 ft 436 kts 316°
2026-05-04 17:47 23.49456 -87.38245 38072 ft 434 kts 316°
2026-05-04 17:48 23.54319 -87.42191 38063 ft 433 kts 316°
2026-05-04 17:48 23.59132 -87.46104 38035 ft 433 kts 316°
2026-05-04 17:49 23.63952 -87.50025 38028 ft 432 kts 316°
2026-05-04 17:49 23.68384 -87.54324 38035 ft 424 kts 308°
2026-05-04 17:50 23.72110 -87.59248 38038 ft 418 kts 300°
2026-05-04 17:50 23.75084 -87.64677 38040 ft 413 kts 293°
2026-05-04 17:51 23.77306 -87.70448 38043 ft 413 kts 288°
2026-05-04 17:51 23.79329 -87.76304 38041 ft 413 kts 288°
2026-05-04 17:52 23.81329 -87.82135 38041 ft 413 kts 288°
2026-05-04 17:52 23.83337 -87.88010 38042 ft 413 kts 288°
2026-05-04 17:53 23.85336 -87.93870 38046 ft 413 kts 288°
2026-05-04 17:53 23.87339 -87.99752 38049 ft 413 kts 288°
2026-05-04 17:54 23.89338 -88.05630 38050 ft 413 kts 288°
2026-05-04 17:54 23.91341 -88.11529 38050 ft 413 kts 288°
2026-05-04 17:55 23.93338 -88.17416 38051 ft 412 kts 288°
2026-05-04 17:55 23.95334 -88.23313 38051 ft 412 kts 288°
2026-05-04 17:56 23.97322 -88.29195 38050 ft 413 kts 288°
2026-05-04 17:56 23.99300 -88.35053 38050 ft 412 kts 288°
2026-05-04 17:57 24.01279 -88.40923 38052 ft 412 kts 288°
2026-05-04 17:57 24.03258 -88.46807 38058 ft 412 kts 288°
2026-05-04 17:58 24.05233 -88.52684 38060 ft 412 kts 288°
2026-05-04 17:58 24.07193 -88.58527 38058 ft 412 kts 288°
2026-05-04 17:59 24.09168 -88.64420 38057 ft 412 kts 288°
2026-05-04 18:00 24.12115 -88.73229 38058 ft 412 kts 288°
2026-05-04 18:00 24.14074 -88.79097 38059 ft 412 kts 288°
2026-05-04 18:01 24.16026 -88.84950 38059 ft 412 kts 288°
2026-05-04 18:01 24.17982 -88.90820 38060 ft 412 kts 288°
2026-05-04 18:02 24.20919 -88.99658 38057 ft 412 kts 289°
2026-05-04 18:02 24.22868 -89.05532 38056 ft 411 kts 289°
2026-05-04 18:03 24.24817 -89.11413 38056 ft 411 kts 289°
2026-05-04 18:03 24.26767 -89.17307 38057 ft 411 kts 289°
2026-05-04 18:04 24.28704 -89.23171 38057 ft 411 kts 289°
2026-05-04 18:05 24.31608 -89.31980 38058 ft 411 kts 289°
2026-05-04 18:05 24.33551 -89.37888 38058 ft 411 kts 289°
2026-05-04 18:06 24.36441 -89.46693 38059 ft 411 kts 289°
2026-05-04 18:06 24.38380 -89.52612 38059 ft 411 kts 290°
2026-05-04 18:07 24.40305 -89.58496 38059 ft 411 kts 290°
2026-05-04 18:07 24.42225 -89.64378 38060 ft 411 kts 290°
2026-05-04 18:08 24.44146 -89.70273 38062 ft 411 kts 289°
2026-05-04 18:08 24.46285 -89.76128 38061 ft 412 kts 295°
2026-05-04 18:09 24.52887 -89.86366 38061 ft 417 kts 311°
2026-05-04 18:10 24.57309 -89.90565 38062 ft 421 kts 320°
2026-05-04 18:10 24.62100 -89.94286 38063 ft 421 kts 320°
2026-05-04 18:11 24.66928 -89.97990 38064 ft 421 kts 320°
2026-05-04 18:11 24.71742 -90.01678 38066 ft 421 kts 320°
2026-05-04 18:12 24.76530 -90.05349 38069 ft 421 kts 321°
2026-05-04 18:12 24.81353 -90.09059 38082 ft 421 kts 322°
2026-05-04 18:13 24.86160 -90.12758 38082 ft 422 kts 323°
2026-05-04 18:14 24.93359 -90.18283 38061 ft 422 kts 323°
2026-05-04 18:14 24.98193 -90.21999 38062 ft 421 kts 323°
2026-05-04 18:15 25.07797 -90.29400 38068 ft 420 kts 323°
2026-05-04 18:16 25.12594 -90.33102 38072 ft 420 kts 323°
2026-05-04 18:16 25.17378 -90.36799 38073 ft 420 kts 323°
2026-05-04 18:17 25.24560 -90.42355 38075 ft 420 kts 323°
2026-05-04 18:18 25.31726 -90.47908 38077 ft 419 kts 323°
2026-05-04 18:18 25.36496 -90.51608 38078 ft 418 kts 323°
2026-05-04 18:19 25.43687 -90.57192 38078 ft 418 kts 323°
2026-05-04 18:19 25.48448 -90.60895 38080 ft 417 kts 323°
2026-05-04 18:20 25.53179 -90.64580 38082 ft 417 kts 323°
2026-05-04 18:20 25.57934 -90.68286 38086 ft 417 kts 322°
2026-05-04 18:21 25.62685 -90.71992 38086 ft 417 kts 322°
2026-05-04 18:21 25.67416 -90.75685 38087 ft 417 kts 322°
2026-05-04 18:22 25.72141 -90.79377 38088 ft 417 kts 322°
2026-05-04 18:22 25.76902 -90.83102 38089 ft 417 kts 322°
2026-05-04 18:23 25.81639 -90.86812 38089 ft 417 kts 322°
2026-05-04 18:23 25.86363 -90.90515 38090 ft 417 kts 322°
2026-05-04 18:24 25.91111 -90.94240 38091 ft 417 kts 322°
2026-05-04 18:24 25.95859 -90.97970 38092 ft 417 kts 322°
2026-05-04 18:25 26.00582 -91.01683 38092 ft 417 kts 322°
2026-05-04 18:25 26.05344 -91.05431 38092 ft 418 kts 322°
2026-05-04 18:26 26.10102 -91.09180 38094 ft 419 kts 322°
2026-05-04 18:26 26.14848 -91.12920 38103 ft 417 kts 322°
2026-05-04 18:27 26.19583 -91.16661 38103 ft 415 kts 321°
2026-05-04 18:27 26.23495 -91.19757 38096 ft 414 kts 321°
2026-05-04 18:28 26.28952 -91.24078 38094 ft 414 kts 321°
2026-05-04 18:28 26.33661 -91.27807 38094 ft 414 kts 321°
2026-05-04 18:29 26.37566 -91.30904 38095 ft 414 kts 321°
2026-05-04 18:29 26.43039 -91.35249 38097 ft 414 kts 321°
2026-05-04 18:30 26.49292 -91.40218 38098 ft 414 kts 321°
2026-05-04 18:31 26.54785 -91.44587 38100 ft 414 kts 321°
2026-05-04 18:31 26.59490 -91.48334 38103 ft 415 kts 321°
2026-05-04 18:32 26.64176 -91.52070 38104 ft 414 kts 321°
2026-05-04 18:32 26.68850 -91.55800 38105 ft 414 kts 321°
2026-05-04 18:33 26.73524 -91.59534 38106 ft 413 kts 321°
2026-05-04 18:33 26.78195 -91.63269 38106 ft 413 kts 321°
2026-05-04 18:34 26.82853 -91.66998 38109 ft 412 kts 321°
2026-05-04 18:34 26.87511 -91.70731 38108 ft 412 kts 321°
2026-05-04 18:35 26.92168 -91.74467 38108 ft 412 kts 321°
2026-05-04 18:35 26.96833 -91.78213 38109 ft 411 kts 321°
2026-05-04 18:36 27.01468 -91.81939 38109 ft 411 kts 321°
2026-05-04 18:36 27.06124 -91.85689 38110 ft 410 kts 321°
2026-05-04 18:37 27.10733 -91.89404 38112 ft 409 kts 321°
2026-05-04 18:37 27.14589 -91.92516 38110 ft 409 kts 321°
2026-05-04 18:38 27.19983 -91.96867 38109 ft 408 kts 321°
2026-05-04 18:38 27.24587 -92.00581 38109 ft 407 kts 321°
2026-05-04 18:39 27.29168 -92.04284 38109 ft 407 kts 321°
2026-05-04 18:39 27.33778 -92.08016 38108 ft 406 kts 321°
2026-05-04 18:40 27.38358 -92.11730 38105 ft 406 kts 321°
2026-05-04 18:40 27.42934 -92.15444 38105 ft 406 kts 321°
2026-05-04 18:41 27.47498 -92.19153 38106 ft 405 kts 321°
2026-05-04 18:41 27.52073 -92.22874 38108 ft 405 kts 321°
2026-05-04 18:42 27.56627 -92.26582 38110 ft 404 kts 321°
2026-05-04 18:42 27.61195 -92.30305 38111 ft 404 kts 321°
2026-05-04 18:43 27.65726 -92.34003 38108 ft 404 kts 321°
2026-05-04 18:43 27.69527 -92.37108 38104 ft 404 kts 321°
2026-05-04 18:44 27.74064 -92.40817 38102 ft 404 kts 321°
2026-05-04 18:44 27.79377 -92.45167 38101 ft 404 kts 321°
2026-05-04 18:45 27.83908 -92.48880 38100 ft 403 kts 321°
2026-05-04 18:45 27.88462 -92.52616 38099 ft 403 kts 321°
2026-05-04 18:46 27.92982 -92.56329 38098 ft 403 kts 321°
2026-05-04 18:46 27.97543 -92.60080 38097 ft 404 kts 321°
2026-05-04 18:47 28.02076 -92.63813 38095 ft 404 kts 321°
2026-05-04 18:47 28.06611 -92.67553 38102 ft 403 kts 321°
2026-05-04 18:48 28.11157 -92.71301 38106 ft 401 kts 320°
2026-05-04 18:48 28.14917 -92.74403 38098 ft 400 kts 320°
2026-05-04 18:49 28.20141 -92.78724 38091 ft 400 kts 320°
2026-05-04 18:49 28.24650 -92.82457 38089 ft 400 kts 320°
2026-05-04 18:50 28.29137 -92.86166 38088 ft 399 kts 320°
2026-05-04 18:50 28.33627 -92.89883 38089 ft 399 kts 320°
2026-05-04 18:51 28.37371 -92.92989 38088 ft 399 kts 320°
2026-05-04 18:51 28.42585 -92.97318 38086 ft 399 kts 320°
2026-05-04 18:52 28.47063 -93.01043 38085 ft 399 kts 320°
2026-05-04 18:52 28.51553 -93.04782 38083 ft 399 kts 320°
2026-05-04 18:53 28.55999 -93.08488 38081 ft 398 kts 320°
2026-05-04 18:53 28.59716 -93.11590 38079 ft 398 kts 320°
2026-05-04 18:54 28.64936 -93.15951 38078 ft 398 kts 320°
2026-05-04 18:54 28.69378 -93.19666 38079 ft 398 kts 320°
2026-05-04 18:55 28.73117 -93.22797 38079 ft 398 kts 320°
2026-05-04 18:55 28.80524 -93.29011 38078 ft 397 kts 320°
2026-05-04 18:56 28.84986 -93.32760 38078 ft 397 kts 320°
2026-05-04 18:56 28.88709 -93.35888 38078 ft 397 kts 320°
2026-05-04 18:57 28.93887 -93.40235 38078 ft 397 kts 320°
2026-05-04 18:57 28.98323 -93.43967 38077 ft 397 kts 320°
2026-05-04 18:58 29.02774 -93.47719 38073 ft 397 kts 320°
2026-05-04 18:58 29.07208 -93.51457 38071 ft 396 kts 320°
2026-05-04 18:59 29.11659 -93.55216 38073 ft 396 kts 320°
2026-05-04 18:59 29.16090 -93.58965 38070 ft 395 kts 320°
2026-05-04 19:00 29.19755 -93.62069 38067 ft 395 kts 320°
2026-05-04 19:00 29.24886 -93.66419 38066 ft 394 kts 320°
2026-05-04 19:01 29.29302 -93.70167 38064 ft 393 kts 319°
2026-05-04 19:01 29.33689 -93.73897 38064 ft 392 kts 319°
2026-05-04 19:02 29.38064 -93.77619 38064 ft 392 kts 319°
2026-05-04 19:02 29.42422 -93.81332 38064 ft 391 kts 319°
2026-05-04 19:03 29.46793 -93.85059 38064 ft 390 kts 319°
2026-05-04 19:03 29.51146 -93.88774 38065 ft 390 kts 319°
2026-05-04 19:04 29.55480 -93.92479 38067 ft 389 kts 319°
2026-05-04 19:04 29.59803 -93.96181 38069 ft 388 kts 319°
2026-05-04 19:05 29.64128 -93.99886 38070 ft 388 kts 319°
2026-05-04 19:05 29.68399 -94.03657 38070 ft 386 kts 316°
2026-05-04 19:06 29.72424 -94.07752 38069 ft 385 kts 314°
2026-05-04 19:06 29.76366 -94.11893 38065 ft 384 kts 314°
2026-05-04 19:07 29.79657 -94.15359 38061 ft 384 kts 314°
2026-05-04 19:07 29.84241 -94.20203 38058 ft 384 kts 314°
2026-05-04 19:08 29.87507 -94.23658 38057 ft 384 kts 314°
2026-05-04 19:08 29.92088 -94.28513 38054 ft 384 kts 314°
2026-05-04 19:09 29.95997 -94.32661 38050 ft 384 kts 314°
2026-05-04 19:09 29.99914 -94.36823 38048 ft 384 kts 314°
2026-05-04 19:10 30.03195 -94.40311 38049 ft 384 kts 314°
2026-05-04 19:10 30.07103 -94.44475 38054 ft 383 kts 314°
2026-05-04 19:11 30.11660 -94.49335 38056 ft 382 kts 314°
2026-05-04 19:11 30.15579 -94.53518 38048 ft 382 kts 314°
2026-05-04 19:12 30.21422 -94.59763 38039 ft 382 kts 314°
2026-05-04 19:13 30.25300 -94.63909 38033 ft 382 kts 314°
2026-05-04 19:13 30.29205 -94.68094 38031 ft 382 kts 314°
2026-05-04 19:14 30.33089 -94.72259 38029 ft 382 kts 314°
2026-05-04 19:14 30.36967 -94.76424 38030 ft 382 kts 314°
2026-05-04 19:15 30.40882 -94.80634 38031 ft 381 kts 313°
2026-05-04 19:15 30.44762 -94.84809 38031 ft 381 kts 313°
2026-05-04 19:16 30.48628 -94.88975 38031 ft 381 kts 313°
2026-05-04 19:16 30.51882 -94.92487 38030 ft 381 kts 313°
2026-05-04 19:17 30.55747 -94.96661 38030 ft 381 kts 313°
2026-05-04 19:17 30.59641 -95.00870 38030 ft 381 kts 313°
2026-05-04 19:18 30.63492 -95.05038 38030 ft 381 kts 313°
2026-05-04 19:18 30.68029 -95.09954 38030 ft 381 kts 313°
2026-05-04 19:19 30.71893 -95.14146 38030 ft 380 kts 313°
2026-05-04 19:19 30.75098 -95.17629 38028 ft 380 kts 313°
2026-05-04 19:20 30.79595 -95.22523 38026 ft 380 kts 313°
2026-05-04 19:20 30.82809 -95.26023 38025 ft 380 kts 313°
2026-05-04 19:21 30.87315 -95.30936 38018 ft 380 kts 313°
2026-05-04 19:21 30.91150 -95.35121 38012 ft 380 kts 313°
2026-05-04 19:22 30.95014 -95.39342 38009 ft 380 kts 313°
2026-05-04 19:22 30.98859 -95.43548 38007 ft 380 kts 313°
2026-05-04 19:23 31.02714 -95.47771 38006 ft 379 kts 313°
2026-05-04 19:23 31.06541 -95.51967 38005 ft 379 kts 313°
2026-05-04 19:24 31.10389 -95.56193 38004 ft 379 kts 313°
2026-05-04 19:24 31.13567 -95.59686 38003 ft 379 kts 313°
2026-05-04 19:25 31.17398 -95.63901 38000 ft 378 kts 313°
2026-05-04 19:25 31.21863 -95.68821 37999 ft 378 kts 312°
2026-05-04 19:26 31.25036 -95.72321 37996 ft 377 kts 312°
2026-05-04 19:26 31.28842 -95.76523 37993 ft 377 kts 312°
2026-05-04 19:27 31.32666 -95.80750 37993 ft 377 kts 312°
2026-05-04 19:27 31.36464 -95.84956 37993 ft 377 kts 312°
2026-05-04 19:28 31.40268 -95.89175 37992 ft 377 kts 312°
2026-05-04 19:28 31.44073 -95.93398 37989 ft 376 kts 312°
2026-05-04 19:29 31.47889 -95.97591 37986 ft 377 kts 313°
2026-05-04 19:29 31.51959 -96.01510 37984 ft 379 kts 317°
2026-05-04 19:30 31.56227 -96.05126 37983 ft 380 kts 318°
2026-05-04 19:30 31.61219 -96.09307 37980 ft 380 kts 318°
2026-05-04 19:31 31.64822 -96.12322 37978 ft 380 kts 318°
2026-05-04 19:31 31.69107 -96.15912 37979 ft 380 kts 318°
2026-05-04 19:32 31.73416 -96.19524 37978 ft 380 kts 318°
2026-05-04 19:32 31.77705 -96.23122 37974 ft 379 kts 318°
2026-05-04 19:33 31.82000 -96.26730 37971 ft 379 kts 318°
2026-05-04 19:33 31.86286 -96.30334 37970 ft 379 kts 318°
2026-05-04 19:34 31.90571 -96.33940 37970 ft 379 kts 318°
2026-05-04 19:34 31.94851 -96.37546 37970 ft 379 kts 318°
2026-05-04 19:35 31.99152 -96.41174 37970 ft 379 kts 318°
2026-05-04 19:35 32.03438 -96.44793 37972 ft 379 kts 318°
2026-05-04 19:36 32.07722 -96.48415 37973 ft 379 kts 318°
2026-05-04 19:36 32.11979 -96.52018 37972 ft 378 kts 318°
2026-05-04 19:37 32.16262 -96.55647 37969 ft 378 kts 318°
2026-05-04 19:37 32.20504 -96.59247 37968 ft 377 kts 318°
2026-05-04 19:38 32.24781 -96.62878 37966 ft 378 kts 318°
2026-05-04 19:38 32.29042 -96.66504 37965 ft 378 kts 317°
2026-05-04 19:39 32.33288 -96.70120 37958 ft 378 kts 317°
2026-05-04 19:39 32.37540 -96.73745 37952 ft 378 kts 317°
2026-05-04 19:40 32.41810 -96.77389 37946 ft 378 kts 317°
2026-05-04 19:40 32.46064 -96.81025 37941 ft 378 kts 317°
2026-05-04 19:41 32.50334 -96.84679 37939 ft 378 kts 317°
2026-05-04 19:41 32.54589 -96.88322 37938 ft 378 kts 317°
2026-05-04 19:42 32.58814 -96.91946 37937 ft 377 kts 317°
2026-05-04 19:42 32.63056 -96.95589 37933 ft 377 kts 317°
2026-05-04 19:43 32.67290 -96.99230 37927 ft 377 kts 317°
2026-05-04 19:43 32.71545 -97.02894 37921 ft 377 kts 317°
2026-05-04 19:44 32.75776 -97.06541 37919 ft 377 kts 317°
2026-05-04 19:44 32.80022 -97.10207 37920 ft 377 kts 317°
2026-05-04 19:45 32.84256 -97.13868 37920 ft 376 kts 317°
2026-05-04 19:45 32.88474 -97.17518 37918 ft 376 kts 317°
2026-05-04 19:46 32.92698 -97.21166 37915 ft 376 kts 317°
2026-05-04 19:46 32.96923 -97.24821 37911 ft 376 kts 317°
2026-05-04 19:47 33.01177 -97.28509 37904 ft 376 kts 317°
2026-05-04 19:47 33.05396 -97.32172 37897 ft 376 kts 317°
2026-05-04 19:48 33.09619 -97.35845 37895 ft 375 kts 317°
2026-05-04 19:48 33.13813 -97.39497 37897 ft 375 kts 317°
2026-05-04 19:49 33.18014 -97.43160 37898 ft 375 kts 317°
2026-05-04 19:49 33.22219 -97.46830 37898 ft 375 kts 317°
2026-05-04 19:50 33.26433 -97.50513 37892 ft 374 kts 317°
2026-05-04 19:50 33.30613 -97.54172 37882 ft 374 kts 317°
2026-05-04 19:51 33.34815 -97.57854 37876 ft 374 kts 317°
2026-05-04 19:51 33.39012 -97.61536 37873 ft 373 kts 317°
2026-05-04 19:52 33.43198 -97.65212 37873 ft 373 kts 316°
2026-05-04 19:52 33.47369 -97.68882 37876 ft 373 kts 316°
2026-05-04 19:53 33.51547 -97.72559 37874 ft 373 kts 316°
2026-05-04 19:53 33.55720 -97.76238 37868 ft 373 kts 316°
2026-05-04 19:54 33.59891 -97.79917 37863 ft 373 kts 316°
2026-05-04 19:54 33.64065 -97.83605 37857 ft 373 kts 316°
2026-05-04 19:55 33.68240 -97.87300 37854 ft 373 kts 316°
2026-05-04 19:55 33.72406 -97.90990 37853 ft 373 kts 316°
2026-05-04 19:56 33.76576 -97.94688 37851 ft 372 kts 316°
2026-05-04 19:56 33.80707 -97.98357 37848 ft 372 kts 316°
2026-05-04 19:57 33.84865 -98.02057 37844 ft 372 kts 316°
2026-05-04 19:57 33.89018 -98.05755 37837 ft 372 kts 316°
2026-05-04 19:58 33.93185 -98.09470 37828 ft 372 kts 316°
2026-05-04 19:58 33.97334 -98.13173 37820 ft 372 kts 316°
2026-05-04 19:59 34.01471 -98.16870 37817 ft 372 kts 316°
2026-05-04 19:59 34.05602 -98.20567 37817 ft 372 kts 316°
2026-05-04 20:00 34.10457 -98.24916 37819 ft 372 kts 316°
2026-05-04 20:00 34.14607 -98.28639 37819 ft 372 kts 316°
2026-05-04 20:01 34.18059 -98.31741 37818 ft 372 kts 316°
2026-05-04 20:01 34.22194 -98.35458 37815 ft 372 kts 316°
2026-05-04 20:02 34.26351 -98.39201 37814 ft 371 kts 316°
2026-05-04 20:02 34.30468 -98.42911 37813 ft 371 kts 316°
2026-05-04 20:03 34.34598 -98.46639 37806 ft 371 kts 316°
2026-05-04 20:03 34.38730 -98.50373 37800 ft 371 kts 316°
2026-05-04 20:04 34.42853 -98.54105 37800 ft 371 kts 316°
2026-05-04 20:04 34.47004 -98.57866 37803 ft 371 kts 316°
2026-05-04 20:05 34.51109 -98.61591 37804 ft 371 kts 316°
2026-05-04 20:05 34.55246 -98.65349 37807 ft 371 kts 315°
2026-05-04 20:06 34.59375 -98.69105 37811 ft 370 kts 315°
2026-05-04 20:06 34.63479 -98.72841 37815 ft 369 kts 315°
2026-05-04 20:07 34.67587 -98.76586 37817 ft 370 kts 315°
2026-05-04 20:07 34.71692 -98.80333 37815 ft 370 kts 315°
2026-05-04 20:08 34.75806 -98.84095 37810 ft 370 kts 315°
2026-05-04 20:08 34.79929 -98.87869 37796 ft 370 kts 315°
2026-05-04 20:09 34.84032 -98.91628 37776 ft 370 kts 315°
2026-05-04 20:09 34.88127 -98.95386 37756 ft 370 kts 315°
2026-05-04 20:10 34.92254 -98.99179 37749 ft 370 kts 315°
2026-05-04 20:10 34.96339 -99.02937 37752 ft 370 kts 315°
2026-05-04 20:11 35.00441 -99.06716 37757 ft 370 kts 315°
2026-05-04 20:11 35.04545 -99.10501 37765 ft 370 kts 315°
2026-05-04 20:12 35.08667 -99.14307 37770 ft 370 kts 314°
2026-05-04 20:12 35.13454 -99.18734 37771 ft 370 kts 314°
2026-05-04 20:13 35.16844 -99.21874 37762 ft 370 kts 314°
2026-05-04 20:13 35.20957 -99.25689 37747 ft 370 kts 314°
2026-05-04 20:14 35.25057 -99.29495 37734 ft 370 kts 314°
2026-05-04 20:14 35.29132 -99.33284 37723 ft 370 kts 314°
2026-05-04 20:15 35.33227 -99.37095 37721 ft 369 kts 314°
2026-05-04 20:15 35.37314 -99.40904 37723 ft 369 kts 314°
2026-05-04 20:16 35.41374 -99.44694 37724 ft 369 kts 314°
2026-05-04 20:16 35.45453 -99.48506 37723 ft 369 kts 314°
2026-05-04 20:17 35.49548 -99.52338 37724 ft 369 kts 314°
2026-05-04 20:17 35.53613 -99.56146 37728 ft 369 kts 314°
2026-05-04 20:18 35.57707 -99.59986 37732 ft 369 kts 314°
2026-05-04 20:18 35.61777 -99.63809 37737 ft 369 kts 314°
2026-05-04 20:19 35.65832 -99.67627 37744 ft 368 kts 314°
2026-05-04 20:19 35.69900 -99.71458 37747 ft 368 kts 313°
2026-05-04 20:20 35.73955 -99.75282 37751 ft 369 kts 313°
2026-05-04 20:20 35.78019 -99.79121 37753 ft 369 kts 313°
2026-05-04 20:21 35.82098 -99.82980 37754 ft 368 kts 313°
2026-05-04 20:21 35.88177 -99.88741 37749 ft 368 kts 313°
2026-05-04 20:22 35.92218 -99.92579 37740 ft 368 kts 313°
2026-05-04 20:22 35.96260 -99.96423 37732 ft 368 kts 313°
2026-05-04 20:23 36.00330 -100.00292 37728 ft 368 kts 314°
2026-05-04 20:23 36.04431 -100.04049 37728 ft 369 kts 314°
2026-05-04 20:24 36.08582 -100.07832 37730 ft 369 kts 314°
2026-05-04 20:24 36.12708 -100.11606 37731 ft 369 kts 314°
2026-05-04 20:25 36.16827 -100.15385 37727 ft 369 kts 314°
2026-05-04 20:25 36.20946 -100.19170 37725 ft 369 kts 314°
2026-05-04 20:26 36.25058 -100.22956 37726 ft 369 kts 314°
2026-05-04 20:26 36.29180 -100.26757 37728 ft 369 kts 314°
2026-05-04 20:27 36.33295 -100.30557 37731 ft 369 kts 314°
2026-05-04 20:27 36.37396 -100.34350 37736 ft 370 kts 314°
2026-05-04 20:28 36.41515 -100.38164 37742 ft 371 kts 314°
2026-05-04 20:28 36.45650 -100.41999 37736 ft 371 kts 314°
2026-05-04 20:29 36.49783 -100.45837 37721 ft 372 kts 314°
2026-05-04 20:29 36.53938 -100.49699 37712 ft 372 kts 314°
2026-05-04 20:30 36.58075 -100.53551 37711 ft 373 kts 314°
2026-05-04 20:30 36.62220 -100.57417 37712 ft 373 kts 314°
2026-05-04 20:31 36.66386 -100.61308 37712 ft 373 kts 314°
2026-05-04 20:31 36.70531 -100.65184 37713 ft 374 kts 314°
2026-05-04 20:32 36.74701 -100.69089 37714 ft 374 kts 314°
2026-05-04 20:32 36.78846 -100.72974 37714 ft 374 kts 314°
2026-05-04 20:33 36.82998 -100.76876 37716 ft 374 kts 313°
2026-05-04 20:33 36.87181 -100.80814 37720 ft 375 kts 313°
2026-05-04 20:34 36.91328 -100.84723 37726 ft 376 kts 313°
2026-05-04 20:34 36.95514 -100.88676 37731 ft 376 kts 313°
2026-05-04 20:35 36.99667 -100.92608 37735 ft 376 kts 313°
2026-05-04 20:35 37.03647 -100.96832 37738 ft 371 kts 309°
2026-05-04 20:36 37.07262 -101.01350 37741 ft 367 kts 305°
2026-05-04 20:36 37.10625 -101.06134 37744 ft 366 kts 304°
2026-05-04 20:37 37.13952 -101.10951 37746 ft 366 kts 304°
2026-05-04 20:37 37.17267 -101.15769 37748 ft 366 kts 304°
2026-05-04 20:38 37.20581 -101.20600 37750 ft 366 kts 304°
2026-05-04 20:38 37.23898 -101.25443 37747 ft 366 kts 304°
2026-05-04 20:39 37.27211 -101.30293 37740 ft 367 kts 303°
2026-05-04 20:39 37.30542 -101.35178 37735 ft 367 kts 303°
2026-05-04 20:40 37.33835 -101.40015 37735 ft 367 kts 303°
2026-05-04 20:40 37.37144 -101.44879 37737 ft 367 kts 303°
2026-05-04 20:41 37.40457 -101.49757 37738 ft 368 kts 303°
2026-05-04 20:41 37.43792 -101.54678 37741 ft 368 kts 303°
2026-05-04 20:42 37.47086 -101.59544 37744 ft 368 kts 303°
2026-05-04 20:42 37.50417 -101.64471 37738 ft 368 kts 303°
2026-05-04 20:43 37.53718 -101.69363 37726 ft 368 kts 303°
2026-05-04 20:43 37.57033 -101.74281 37717 ft 368 kts 303°
2026-05-04 20:44 37.60336 -101.79188 37718 ft 368 kts 303°
2026-05-04 20:44 37.63636 -101.84091 37723 ft 368 kts 303°
2026-05-04 20:45 37.66934 -101.89005 37729 ft 367 kts 303°
2026-05-04 20:45 37.70248 -101.93948 37736 ft 367 kts 303°
2026-05-04 20:46 37.73475 -101.98765 37738 ft 367 kts 302°
2026-05-04 20:46 37.76751 -102.03685 37744 ft 367 kts 302°
2026-05-04 20:47 37.80056 -102.08642 37752 ft 368 kts 302°
2026-05-04 20:47 37.83390 -102.13577 37756 ft 370 kts 304°
2026-05-04 20:48 37.86895 -102.18342 37763 ft 371 kts 305°
2026-05-04 20:48 37.90422 -102.23094 37768 ft 371 kts 304°
2026-05-04 20:49 37.93961 -102.27900 37770 ft 371 kts 304°
2026-05-04 20:49 37.97467 -102.32661 37762 ft 371 kts 305°
2026-05-04 20:50 38.00981 -102.37436 37752 ft 371 kts 305°
2026-05-04 20:50 38.04511 -102.42242 37751 ft 371 kts 305°
2026-05-04 20:51 38.08001 -102.47013 37756 ft 372 kts 305°
2026-05-04 20:51 38.11533 -102.51820 37761 ft 372 kts 304°
2026-05-04 20:52 38.15041 -102.56627 37680 ft 368 kts 305°
2026-05-04 20:52 38.16764 -102.58999 37408 ft 369 kts 305°
2026-05-04 20:52 38.18516 -102.61385 37108 ft 368 kts 304°
2026-05-04 20:53 38.20249 -102.63763 36807 ft 364 kts 305°
2026-05-04 20:53 38.21956 -102.66105 36470 ft 361 kts 304°
2026-05-04 20:53 38.23680 -102.68461 36068 ft 362 kts 304°
2026-05-04 20:53 38.25415 -102.70850 35657 ft 364 kts 304°
2026-05-04 20:54 38.27133 -102.73215 35255 ft 366 kts 304°
2026-05-04 20:54 38.28875 -102.75607 34849 ft 369 kts 304°
2026-05-04 20:54 38.30606 -102.77985 34444 ft 371 kts 304°
2026-05-04 20:54 38.32359 -102.80410 34034 ft 374 kts 305°
2026-05-04 20:55 38.34132 -102.82865 33627 ft 377 kts 305°
2026-05-04 20:55 38.35918 -102.85329 33222 ft 380 kts 305°
2026-05-04 20:55 38.37705 -102.87796 32830 ft 383 kts 306°
2026-05-04 20:55 38.39507 -102.90290 32439 ft 386 kts 306°
2026-05-04 20:56 38.41348 -102.92831 32040 ft 390 kts 306°
2026-05-04 20:56 38.43171 -102.95358 31653 ft 393 kts 306°
2026-05-04 20:56 38.45046 -102.97965 31261 ft 397 kts 306°
2026-05-04 20:56 38.46921 -103.00574 30874 ft 402 kts 306°
2026-05-04 20:57 38.48800 -103.03187 30491 ft 406 kts 306°
2026-05-04 20:57 38.50731 -103.05872 30102 ft 411 kts 307°
2026-05-04 20:57 38.52651 -103.08544 29722 ft 415 kts 307°
2026-05-04 20:57 38.54613 -103.11276 29368 ft 419 kts 307°
2026-05-04 20:58 38.56599 -103.14043 29013 ft 423 kts 307°
2026-05-04 20:58 38.58588 -103.16816 28638 ft 426 kts 307°
2026-05-04 20:58 38.60583 -103.19596 28241 ft 426 kts 308°
2026-05-04 20:58 38.62602 -103.22411 27840 ft 425 kts 308°
2026-05-04 20:59 38.64587 -103.25182 27444 ft 424 kts 308°
2026-05-04 20:59 38.66579 -103.27968 27045 ft 423 kts 308°
2026-05-04 20:59 38.68534 -103.30705 26651 ft 421 kts 308°
2026-05-04 20:59 38.70515 -103.33482 26252 ft 420 kts 308°
2026-05-04 21:00 38.72481 -103.36241 25854 ft 419 kts 308°
2026-05-04 21:00 38.74413 -103.38956 25469 ft 417 kts 308°
2026-05-04 21:00 38.76368 -103.41704 25110 ft 416 kts 308°
2026-05-04 21:00 38.78335 -103.44471 24731 ft 415 kts 308°
2026-05-04 21:01 38.80267 -103.47192 24355 ft 414 kts 308°
2026-05-04 21:01 38.82184 -103.49892 23990 ft 413 kts 308°
2026-05-04 21:01 38.84124 -103.52634 23627 ft 412 kts 308°
2026-05-04 21:01 38.86042 -103.55344 23269 ft 411 kts 308°
2026-05-04 21:02 38.87935 -103.58025 22916 ft 409 kts 308°
2026-05-04 21:02 38.89852 -103.60743 22562 ft 408 kts 308°
2026-05-04 21:02 38.91751 -103.63435 22218 ft 407 kts 308°
2026-05-04 21:02 38.93637 -103.66114 21876 ft 406 kts 308°
2026-05-04 21:03 38.95536 -103.68814 21531 ft 404 kts 308°
2026-05-04 21:03 38.97416 -103.71487 21194 ft 403 kts 308°
2026-05-04 21:03 38.99279 -103.74139 20868 ft 401 kts 308°
2026-05-04 21:03 39.01147 -103.76802 20542 ft 400 kts 308°
2026-05-04 21:04 39.03005 -103.79448 20217 ft 395 kts 308°
2026-05-04 21:04 39.04834 -103.82056 19887 ft 386 kts 308°
2026-05-04 21:04 39.06617 -103.84602 19531 ft 376 kts 308°
2026-05-04 21:04 39.08333 -103.87050 19167 ft 359 kts 308°
2026-05-04 21:05 39.09971 -103.89388 18833 ft 343 kts 308°
2026-05-04 21:05 39.11537 -103.91625 18469 ft 327 kts 308°
2026-05-04 21:05 39.13009 -103.93726 18131 ft 309 kts 308°
2026-05-04 21:05 39.14415 -103.95760 17800 ft 300 kts 308°
2026-05-04 21:06 39.15798 -103.97774 17511 ft 301 kts 308°
2026-05-04 21:06 39.17175 -103.99782 17181 ft 300 kts 308°
2026-05-04 21:06 39.18557 -104.01788 16853 ft 299 kts 308°
2026-05-04 21:06 39.19950 -104.03810 16522 ft 297 kts 308°
2026-05-04 21:07 39.21301 -104.05774 16200 ft 295 kts 308°
2026-05-04 21:07 39.22673 -104.07769 15852 ft 295 kts 308°
2026-05-04 21:07 39.24032 -104.09735 15489 ft 294 kts 308°
2026-05-04 21:07 39.25383 -104.11734 15136 ft 295 kts 308°
2026-05-04 21:08 39.26723 -104.13710 14797 ft 296 kts 309°
2026-05-04 21:08 39.28095 -104.15720 14457 ft 296 kts 309°
2026-05-04 21:08 39.29380 -104.17754 14129 ft 293 kts 302°
2026-05-04 21:08 39.30279 -104.20104 13890 ft 289 kts 290°
2026-05-04 21:09 39.30819 -104.22601 13681 ft 291 kts 282°
2026-05-04 21:09 39.31229 -104.25163 13456 ft 287 kts 282°
2026-05-04 21:09 39.31614 -104.27658 13243 ft 282 kts 282°
2026-05-04 21:09 39.31992 -104.30093 13031 ft 277 kts 282°
2026-05-04 21:10 39.32373 -104.32523 12819 ft 273 kts 282°
2026-05-04 21:10 39.32749 -104.34902 12610 ft 270 kts 282°
2026-05-04 21:10 39.33122 -104.37256 12411 ft 271 kts 283°
2026-05-04 21:10 39.33500 -104.39654 12207 ft 271 kts 283°
2026-05-04 21:11 39.33874 -104.42027 12027 ft 271 kts 283°
2026-05-04 21:11 39.34252 -104.44409 11979 ft 271 kts 283°
2026-05-04 21:11 39.34632 -104.46802 11978 ft 266 kts 283°
2026-05-04 21:11 39.34992 -104.49078 11978 ft 254 kts 283°
2026-05-04 21:12 39.35339 -104.51283 11987 ft 249 kts 283°
2026-05-04 21:12 39.35675 -104.53468 11991 ft 251 kts 283°
2026-05-04 21:12 39.36021 -104.55680 11989 ft 250 kts 283°
2026-05-04 21:12 39.36388 -104.57890 11987 ft 250 kts 288°
2026-05-04 21:13 39.37006 -104.59968 11980 ft 249 kts 299°
2026-05-04 21:13 39.37855 -104.61895 11835 ft 245 kts 302°
2026-05-04 21:13 39.38866 -104.63657 11539 ft 246 kts 318°
2026-05-04 21:13 39.40267 -104.64946 11269 ft 246 kts 332°
2026-05-04 21:14 39.41833 -104.65821 11017 ft 246 kts 340°
2026-05-04 21:14 39.43484 -104.66372 10743 ft 247 kts 352°
2026-05-04 21:14 39.45195 -104.66527 10525 ft 245 kts 358°
2026-05-04 21:14 39.46883 -104.66522 10288 ft 244 kts 360°
2026-05-04 21:15 39.48568 -104.66485 10052 ft 243 kts 360°
2026-05-04 21:15 39.50261 -104.66451 9828 ft 242 kts
2026-05-04 21:15 39.51909 -104.66421 9691 ft 235 kts
2026-05-04 21:15 39.53540 -104.66396 9563 ft 229 kts
2026-05-04 21:16 39.55104 -104.66372 9438 ft 222 kts 360°
2026-05-04 21:16 39.56638 -104.66352 9316 ft 214 kts 360°
2026-05-04 21:16 39.58086 -104.66337 9170 ft 206 kts 360°
2026-05-04 21:16 39.59499 -104.66318 9018 ft 198 kts 359°
2026-05-04 21:17 39.60854 -104.66303 8870 ft 191 kts 359°
2026-05-04 21:17 39.62155 -104.66292 8732 ft 184 kts 358°
2026-05-04 21:17 39.63420 -104.66275 8567 ft 178 kts 358°
2026-05-04 21:17 39.64629 -104.66263 8352 ft 170 kts 356°
2026-05-04 21:18 39.65791 -104.66250 8133 ft 163 kts 356°
2026-05-04 21:18 39.66914 -104.66238 7833 ft 161 kts 355°
2026-05-04 21:18 39.68033 -104.66228 7523 ft 160 kts 356°
2026-05-04 21:18 39.69132 -104.66216 7210 ft 159 kts 356°
2026-05-04 21:19 39.70222 -104.66200 6994 ft 155 kts 356°
2026-05-04 21:19 39.71328 -104.66184 6989 ft 158 kts 357°
2026-05-04 21:19 39.72430 -104.66170 6980 ft 159 kts 358°
2026-05-04 21:19 39.73529 -104.66155 6974 ft 159 kts 358°
2026-05-04 21:20 39.74643 -104.66143 6947 ft 160 kts 358°
2026-05-04 21:20 39.75768 -104.66132 6752 ft 160 kts 359°
2026-05-04 21:20 39.76878 -104.66119 6554 ft 159 kts 358°
2026-05-04 21:20 39.77970 -104.66110 6364 ft 158 kts 359°
2026-05-04 21:21 39.79072 -104.66095 6189 ft 158 kts 358°
2026-05-04 21:21 39.80173 -104.66083 6009 ft 157 kts 358°
2026-05-04 21:21 39.81277 -104.66069 5803 ft 156 kts 358°
2026-05-04 21:21 39.82352 -104.66057 5601 ft 154 kts 356°
2026-05-04 21:22 39.83411 -104.66042 5435 ft 147 kts 355°
2026-05-04 21:22 39.84317 -104.66037 5410 ft 105 kts
2026-05-04 21:22 39.84868 -104.66037 5401 ft 60 kts
2026-05-04 21:22 39.85200 -104.66093 5398 ft 36 kts 336°
2026-05-04 21:23 39.85338 -104.66191 5397 ft 19 kts 330°
2026-05-04 21:23 39.85371 -104.66211 5397 ft 0 kts 338°
2026-05-04 21:24 39.85372 -104.66212 5397 ft 0 kts 339°
2026-05-04 21:24 39.85383 -104.66217 5397 ft 2 kts 338°
2026-05-04 21:24 39.85401 -104.66225 5397 ft 3 kts 344°
2026-05-04 21:24 39.85429 -104.66233 5396 ft 4 kts 350°
2026-05-04 21:25 39.85484 -104.66238 5396 ft 6 kts 359°
2026-05-04 21:25 39.85518 -104.66238 5396 ft 7 kts
2026-05-04 21:25 39.85575 -104.66237 5395 ft 8 kts 360°
2026-05-04 21:25 39.85638 -104.66239 5394 ft 8 kts 345°
2026-05-04 21:26 39.85675 -104.66305 5392 ft 11 kts 279°
2026-05-04 21:26 39.85679 -104.66426 5388 ft 15 kts 270°
2026-05-04 21:26 39.85670 -104.66529 5385 ft 8 kts 249°
2026-05-04 21:26 39.85659 -104.66605 5385 ft 8 kts 269°
2026-05-04 21:27 39.85660 -104.66688 5385 ft 9 kts 270°
2026-05-04 21:27 39.85663 -104.66773 5385 ft 8 kts 284°
2026-05-04 21:27 39.85703 -104.66821 5385 ft 7 kts 323°
2026-05-04 21:27 39.85726 -104.66876 5385 ft 7 kts 279°
2026-05-04 21:28 39.85727 -104.66901 5385 ft 0 kts 270°
2026-05-04 21:30 39.85727 -104.66905 5385 ft 0 kts 271°
2026-05-04 21:30 39.85727 -104.66925 5385 ft 2 kts 271°
2026-05-04 21:31 39.85728 -104.66974 5385 ft 4 kts 271°
2026-05-04 21:31 39.85729 -104.67015 5385 ft 5 kts 270°
2026-05-04 21:31 39.85729 -104.67065 5385 ft 5 kts 270°
2026-05-04 21:32 39.85730 -104.67123 5385 ft 6 kts 270°
2026-05-04 21:32 39.85730 -104.67176 5385 ft 2 kts 271°
2026-05-04 21:32 39.85737 -104.67191 5385 ft 2 kts 314°
2026-05-04 21:32 39.85755 -104.67201 5385 ft 3 kts 344°
2026-05-04 21:33 39.85780 -104.67205 5385 ft 3 kts
2026-05-04 21:33 39.85787 -104.67205 5385 ft 0 kts 359°
2026-05-04 21:33 39.85794 -104.67205 5385 ft 1 kts 359°
2026-05-04 21:33 39.85803 -104.67205 5385 ft 0 kts 359°